Time,TemperatureF,DewpointF,PressureIn,WindDirection,WindDirectionDegrees,WindSpeedMPH,WindSpeedGustMPH,Humidity,HourlyPrecipIn,Conditions,Clouds,dailyrainin,SoftwareType,DateUTC
2013-10-26 00:02:00,27.7,25.9,30.33,SSW,212,0.0,0.0,93,0.00,,,0.00,Wunderground v.1.15,2013-10-26 04:02:00,
2013-10-26 00:03:00,27.7,25.9,30.33,SSW,212,0.0,0.0,93,0.00,,,0.00,Wunderground v.1.15,2013-10-26 04:03:00,
2013-10-26 00:04:00,27.7,25.9,30.33,SSW,212,0.0,0.0,93,0.00,,,0.00,Wunderground v.1.15,2013-10-26 04:04:00,
2013-10-26 00:10:00,27.8,26.0,30.33,SSW,212,0.0,0.0,93,0.00,,,0.00,Wunderground v.1.15,2013-10-26 04:10:00,
2013-10-26 00:15:00,27.5,25.7,30.33,SSW,212,0.0,1.0,93,0.00,,,0.00,Wunderground v.1.15,2013-10-26 04:15:00,
2013-10-26 00:20:00,27.3,25.5,30.33,SSW,212,0.0,0.0,93,0.00,,,0.00,Wunderground v.1.15,2013-10-26 04:20:00,
2013-10-26 00:21:00,27.3,25.5,30.33,SSW,212,0.0,0.0,93,0.00,,,0.00,Wunderground v.1.15,2013-10-26 04:21:00,
2013-10-26 00:24:00,27.2,25.4,30.33,SSW,212,0.0,0.0,93,0.00,,,0.00,Wunderground v.1.15,2013-10-26 04:24:00,
2013-10-26 00:31:00,27.2,26.0,30.33,SSW,212,0.0,0.0,93,0.00,,,0.00,weatherlink.com 1.10,2013-10-26 04:31:00,
2013-10-26 00:36:00,27.2,25.7,30.33,SSW,212,0.0,0.0,94,0.00,,,0.00,Wunderground v.1.15,2013-10-26 04:36:00,
2013-10-26 00:42:00,27.1,25.3,30.33,SSW,212,0.0,1.0,93,0.00,,,0.00,Wunderground v.1.15,2013-10-26 04:42:00,
2013-10-26 00:47:00,27.1,25.6,30.33,SSW,212,0.0,1.0,94,0.00,,,0.00,Wunderground v.1.15,2013-10-26 04:47:00,
2013-10-26 00:52:00,27.1,25.6,30.33,SSW,212,0.0,1.0,94,0.00,,,0.00,Wunderground v.1.15,2013-10-26 04:52:00,
2013-10-26 00:57:00,27.1,25.6,30.33,SSW,212,0.0,1.0,94,0.00,,,0.00,Wunderground v.1.15,2013-10-26 04:57:00,
2013-10-26 01:03:00,27.1,25.6,30.33,SSW,212,0.0,0.0,94,0.00,,,0.00,Wunderground v.1.15,2013-10-26 05:03:00,
2013-10-26 01:08:00,26.9,25.1,30.33,SSW,212,0.0,0.0,93,0.00,,,0.00,Wunderground v.1.15,2013-10-26 05:08:00,
2013-10-26 01:14:00,26.9,25.4,30.33,SSW,212,0.0,0.0,94,0.00,,,0.00,Wunderground v.1.15,2013-10-26 05:14:00,
2013-10-26 01:22:00,26.8,25.3,30.33,SSW,212,0.0,0.0,94,0.00,,,0.00,Wunderground v.1.15,2013-10-26 05:22:00,
2013-10-26 01:30:00,26.8,25.3,30.33,SSW,212,0.0,0.0,94,0.00,,,0.00,Wunderground v.1.15,2013-10-26 05:30:00,
2013-10-26 01:35:00,26.7,25.2,30.33,SSW,212,0.0,0.0,94,0.00,,,0.00,Wunderground v.1.15,2013-10-26 05:35:00,
2013-10-26 01:42:00,26.6,25.1,30.33,SSW,212,0.0,0.0,94,0.00,,,0.00,Wunderground v.1.15,2013-10-26 05:42:00,
2013-10-26 01:51:00,26.6,25.0,30.32,SSW,212,0.0,1.0,94,0.00,,,0.00,weatherlink.com 1.10,2013-10-26 05:51:00,
2013-10-26 01:57:00,26.5,24.8,30.32,SSW,212,0.0,0.0,93,0.00,,,0.00,Wunderground v.1.15,2013-10-26 05:57:00,
2013-10-26 02:03:00,26.4,25.0,30.32,SSW,212,0.0,1.0,94,0.00,,,0.00,weatherlink.com 1.10,2013-10-26 06:03:00,
2013-10-26 02:08:00,26.3,24.8,30.32,SSW,212,0.0,0.0,94,0.00,,,0.00,Wunderground v.1.15,2013-10-26 06:08:00,
2013-10-26 02:14:00,26.4,24.9,30.32,SSW,212,0.0,0.0,94,0.00,,,0.00,Wunderground v.1.15,2013-10-26 06:14:00,
2013-10-26 02:23:00,26.2,25.0,30.31,SSW,212,0.0,1.0,94,0.00,,,0.00,weatherlink.com 1.10,2013-10-26 06:23:00,
2013-10-26 02:28:00,26.1,24.6,30.31,SSW,212,0.0,0.0,94,0.00,,,0.00,Wunderground v.1.15,2013-10-26 06:28:00,
2013-10-26 02:34:00,25.9,24.4,30.31,SSW,212,0.0,0.0,94,0.00,,,0.00,Wunderground v.1.15,2013-10-26 06:34:00,
2013-10-26 02:40:00,26.0,24.5,30.31,SSW,212,0.0,0.0,94,0.00,,,0.00,Wunderground v.1.15,2013-10-26 06:40:00,
2013-10-26 02:45:00,26.0,24.5,30.31,SSW,212,0.0,0.0,94,0.00,,,0.00,Wunderground v.1.15,2013-10-26 06:45:00,
2013-10-26 03:03:00,25.7,24.0,30.31,SSW,212,0.0,1.0,93,0.00,,,0.00,weatherlink.com 1.10,2013-10-26 07:03:00,
2013-10-26 03:18:00,25.4,24.0,30.31,SSW,212,0.0,1.0,93,0.00,,,0.00,weatherlink.com 1.10,2013-10-26 07:18:00,
2013-10-26 03:33:00,25.4,24.0,30.30,SSW,212,0.0,0.0,94,0.00,,,0.00,weatherlink.com 1.10,2013-10-26 07:33:00,
2013-10-26 03:48:00,25.3,24.0,30.30,SSW,212,0.0,0.0,94,0.00,,,0.00,weatherlink.com 1.10,2013-10-26 07:48:00,
2013-10-26 04:03:00,25.0,24.0,30.30,SSW,212,0.0,1.0,94,0.00,,,0.00,weatherlink.com 1.10,2013-10-26 08:03:00,
2013-10-26 04:18:00,25.2,24.0,30.29,SSW,212,0.0,1.0,94,0.00,,,0.00,weatherlink.com 1.10,2013-10-26 08:18:00,
2013-10-26 04:33:00,24.8,23.0,30.28,SSW,212,0.0,1.0,94,0.00,,,0.00,weatherlink.com 1.10,2013-10-26 08:33:00,
2013-10-26 04:48:00,24.6,23.0,30.28,SSW,212,0.0,1.0,94,0.00,,,0.00,weatherlink.com 1.10,2013-10-26 08:48:00,
2013-10-26 05:03:00,24.6,23.0,30.28,SSW,212,0.0,1.0,94,0.00,,,0.00,weatherlink.com 1.10,2013-10-26 09:03:00,
2013-10-26 05:18:00,24.6,23.0,30.28,SSW,212,0.0,1.0,94,0.00,,,0.00,weatherlink.com 1.10,2013-10-26 09:18:00,
2013-10-26 05:33:00,24.7,23.0,30.27,SSW,212,0.0,1.0,93,0.00,,,0.00,weatherlink.com 1.10,2013-10-26 09:33:00,
2013-10-26 05:48:00,24.1,23.0,30.27,SSW,212,0.0,1.0,94,0.00,,,0.00,weatherlink.com 1.10,2013-10-26 09:48:00,
2013-10-26 06:03:00,24.3,23.0,30.27,SSW,212,0.0,1.0,94,0.00,,,0.00,weatherlink.com 1.10,2013-10-26 10:03:00,
2013-10-26 06:18:00,24.0,22.0,30.26,SSW,212,0.0,1.0,93,0.00,,,0.00,weatherlink.com 1.10,2013-10-26 10:18:00,
2013-10-26 06:33:00,23.9,22.0,30.26,SSW,212,0.0,0.0,93,0.00,,,0.00,weatherlink.com 1.10,2013-10-26 10:33:00,
2013-10-26 06:48:00,23.5,22.0,30.26,SSW,212,0.0,0.0,93,0.00,,,0.00,weatherlink.com 1.10,2013-10-26 10:48:00,
2013-10-26 07:03:00,23.5,22.0,30.26,SSW,212,0.0,1.0,94,0.00,,,0.00,weatherlink.com 1.10,2013-10-26 11:03:00,
2013-10-26 07:18:00,23.3,22.0,30.26,SSW,212,0.0,1.0,93,0.00,,,0.00,weatherlink.com 1.10,2013-10-26 11:18:00,
2013-10-26 07:33:00,23.4,22.0,30.25,SSW,212,0.0,1.0,94,0.00,,,0.00,weatherlink.com 1.10,2013-10-26 11:33:00,
2013-10-26 07:49:00,23.5,22.0,30.25,SSW,212,0.0,1.0,94,0.00,,,0.00,weatherlink.com 1.10,2013-10-26 11:49:00,
2013-10-26 07:59:00,23.6,22.1,30.25,SSW,212,0.0,1.0,94,0.00,,,0.00,Wunderground v.1.15,2013-10-26 11:59:00,
2013-10-26 08:05:00,23.6,21.9,30.25,SSW,212,0.0,1.0,93,0.00,,,0.00,Wunderground v.1.15,2013-10-26 12:05:00,
2013-10-26 08:10:00,23.5,21.8,30.25,SSW,212,0.0,0.0,93,0.00,,,0.00,Wunderground v.1.15,2013-10-26 12:10:00,
2013-10-26 08:16:00,23.6,22.1,30.25,SSW,212,0.0,1.0,94,0.00,,,0.00,Wunderground v.1.15,2013-10-26 12:16:00,
2013-10-26 08:21:00,23.7,22.2,30.25,SSW,212,0.0,0.0,94,0.00,,,0.00,Wunderground v.1.15,2013-10-26 12:21:00,
2013-10-26 08:29:00,24.0,22.5,30.25,SSW,212,0.0,0.0,94,0.00,,,0.00,Wunderground v.1.15,2013-10-26 12:29:00,
2013-10-26 08:35:00,24.3,23.0,30.25,SSW,212,0.0,1.0,94,0.00,,,0.00,weatherlink.com 1.10,2013-10-26 12:35:00,
2013-10-26 08:40:00,24.9,23.7,30.24,SSW,212,0.0,0.0,95,0.00,,,0.00,Wunderground v.1.15,2013-10-26 12:40:00,
2013-10-26 08:45:00,25.3,23.8,30.24,SSW,212,0.0,0.0,94,0.00,,,0.00,Wunderground v.1.15,2013-10-26 12:45:00,
2013-10-26 08:51:00,25.6,24.1,30.24,SSW,212,0.0,0.0,94,0.00,,,0.00,Wunderground v.1.15,2013-10-26 12:51:00,
2013-10-26 08:56:00,26.0,24.5,30.24,SSW,212,0.0,1.0,94,0.00,,,0.00,Wunderground v.1.15,2013-10-26 12:56:00,
2013-10-26 09:02:00,26.8,25.3,30.24,SSW,212,0.0,0.0,94,0.00,,,0.00,Wunderground v.1.15,2013-10-26 13:02:00,
2013-10-26 09:08:00,27.4,25.6,30.24,SSW,212,0.0,1.0,93,0.00,,,0.00,Wunderground v.1.15,2013-10-26 13:08:00,
2013-10-26 09:13:00,27.8,26.0,30.24,SSW,212,1.0,2.0,93,0.00,,,0.00,Wunderground v.1.15,2013-10-26 13:13:00,
2013-10-26 09:20:00,28.3,27.0,30.24,SSW,212,1.0,2.0,93,0.00,,,0.00,weatherlink.com 1.10,2013-10-26 13:20:00,
2013-10-26 09:27:00,28.7,26.9,30.24,SSW,212,1.0,1.0,93,0.00,,,0.00,Wunderground v.1.15,2013-10-26 13:27:00,
2013-10-26 09:33:00,29.6,27.6,30.23,SSW,212,0.0,1.0,92,0.00,,,0.00,Wunderground v.1.15,2013-10-26 13:33:00,
2013-10-26 09:38:00,30.2,28.2,30.23,SSW,212,0.0,1.0,92,0.00,,,0.00,Wunderground v.1.15,2013-10-26 13:38:00,
2013-10-26 09:44:00,31.4,28.5,30.23,SSW,212,0.0,1.0,89,0.00,,,0.00,Wunderground v.1.15,2013-10-26 13:44:00,
2013-10-26 09:49:00,32.4,29.0,30.23,South,177,1.0,1.0,87,0.00,,,0.00,Wunderground v.1.15,2013-10-26 13:49:00,
2013-10-26 09:54:00,33.2,29.5,30.22,SSW,197,1.0,2.0,86,0.00,,,0.00,Wunderground v.1.15,2013-10-26 13:54:00,
2013-10-26 10:06:00,35.2,31.0,30.21,South,182,0.0,3.0,83,0.00,,,0.00,weatherlink.com 1.10,2013-10-26 14:06:00,
2013-10-26 10:21:00,37.1,31.0,30.20,South,183,2.0,4.0,77,0.00,,,0.00,weatherlink.com 1.10,2013-10-26 14:21:00,
2013-10-26 10:28:00,38.0,30.8,30.20,South,190,1.0,1.0,75,0.00,,,0.00,Wunderground v.1.15,2013-10-26 14:28:00,
2013-10-26 10:33:00,38.8,31.2,30.20,South,180,1.0,2.0,74,0.00,,,0.00,Wunderground v.1.15,2013-10-26 14:33:00,
2013-10-26 10:38:00,39.3,31.0,30.19,SSW,194,2.0,2.0,72,0.00,,,0.00,Wunderground v.1.15,2013-10-26 14:38:00,
2013-10-26 10:46:00,40.2,31.2,30.19,SW,223,2.0,2.0,70,0.00,,,0.00,Wunderground v.1.15,2013-10-26 14:46:00,
2013-10-26 10:52:00,41.3,30.0,30.18,South,182,0.0,4.0,65,0.00,,,0.00,weatherlink.com 1.10,2013-10-26 14:52:00,
2013-10-26 11:07:00,43.6,29.0,30.17,SSW,202,2.0,8.0,56,0.00,,,0.00,weatherlink.com 1.10,2013-10-26 15:07:00,
2013-10-26 11:22:00,44.9,27.0,30.16,WNW,284,2.0,7.0,50,0.00,,,0.00,weatherlink.com 1.10,2013-10-26 15:22:00,
2013-10-26 11:34:00,45.8,28.2,30.15,SSW,201,2.0,3.0,50,0.00,,,0.00,Wunderground v.1.15,2013-10-26 15:34:00,
2013-10-26 11:40:00,46.1,27.5,30.15,ESE,116,2.0,4.0,48,0.00,,,0.00,Wunderground v.1.15,2013-10-26 15:40:00,
2013-10-26 11:46:00,46.0,26.9,30.15,North,5,3.0,4.0,47,0.00,,,0.00,Wunderground v.1.15,2013-10-26 15:46:00,
2013-10-26 11:51:00,46.2,27.1,30.15,SSW,197,2.0,7.0,47,0.00,,,0.00,Wunderground v.1.15,2013-10-26 15:51:00,
2013-10-26 11:58:00,46.9,26.6,30.14,South,175,3.0,5.0,45,0.00,,,0.00,Wunderground v.1.15,2013-10-26 15:58:00,
2013-10-26 12:03:00,47.2,26.9,30.13,SSW,209,3.0,7.0,45,0.00,,,0.00,Wunderground v.1.15,2013-10-26 16:03:00,
2013-10-26 12:09:00,47.7,25.7,30.13,South,186,3.0,7.0,42,0.00,,,0.00,Wunderground v.1.15,2013-10-26 16:09:00,
2013-10-26 12:14:00,47.8,25.2,30.13,ESE,112,3.0,4.0,41,0.00,,,0.00,Wunderground v.1.15,2013-10-26 16:14:00,
2013-10-26 12:20:00,47.8,24.6,30.12,South,169,4.0,4.0,40,0.00,,,0.00,Wunderground v.1.15,2013-10-26 16:20:00,
2013-10-26 12:27:00,48.5,25.2,30.12,ESE,113,3.0,6.0,40,0.00,,,0.00,Wunderground v.1.15,2013-10-26 16:27:00,
2013-10-26 12:32:00,48.7,25.4,30.11,SSW,212,2.0,3.0,40,0.00,,,0.00,Wunderground v.1.15,2013-10-26 16:32:00,
2013-10-26 12:38:00,49.4,25.0,30.11,West,275,3.0,7.0,38,0.00,,,0.00,weatherlink.com 1.10,2013-10-26 16:38:00,
2013-10-26 12:44:00,49.3,24.7,30.11,SSW,210,3.0,3.0,38,0.00,,,0.00,Wunderground v.1.15,2013-10-26 16:44:00,
2013-10-26 12:49:00,49.3,24.7,30.10,ESE,121,3.0,6.0,38,0.00,,,0.00,Wunderground v.1.15,2013-10-26 16:49:00,
2013-10-26 12:55:00,49.5,24.3,30.10,SW,234,4.0,5.0,37,0.00,,,0.00,Wunderground v.1.15,2013-10-26 16:55:00,
2013-10-26 13:00:00,50.4,25.1,30.09,East,101,2.0,2.0,37,0.00,,,0.00,Wunderground v.1.15,2013-10-26 17:00:00,
2013-10-26 13:08:00,50.9,24.9,30.09,SE,130,2.0,4.0,36,0.00,,,0.00,Wunderground v.1.15,2013-10-26 17:08:00,
2013-10-26 13:13:00,51.6,24.1,30.08,NW,319,1.0,4.0,34,0.00,,,0.00,Wunderground v.1.15,2013-10-26 17:13:00,
2013-10-26 13:18:00,51.5,24.0,30.08,South,175,2.0,5.0,34,0.00,,,0.00,Wunderground v.1.15,2013-10-26 17:18:00,
2013-10-26 13:23:00,51.6,24.1,30.08,South,171,3.0,3.0,34,0.00,,,0.00,Wunderground v.1.15,2013-10-26 17:23:00,
2013-10-26 13:29:00,52.0,24.5,30.07,North,350,2.0,3.0,34,0.00,,,0.00,Wunderground v.1.15,2013-10-26 17:29:00,
2013-10-26 13:34:00,52.3,23.3,30.07,South,180,2.0,5.0,32,0.00,,,0.00,Wunderground v.1.15,2013-10-26 17:34:00,
2013-10-26 13:40:00,53.0,24.0,30.06,WNW,287,4.0,9.0,33,0.00,,,0.00,weatherlink.com 1.10,2013-10-26 17:40:00,
2013-10-26 13:46:00,53.2,24.1,30.06,SSE,149,3.0,4.0,32,0.00,,,0.00,Wunderground v.1.15,2013-10-26 17:46:00,
2013-10-26 13:51:00,53.3,23.4,30.06,ENE,75,3.0,4.0,31,0.00,,,0.00,Wunderground v.1.15,2013-10-26 17:51:00,
2013-10-26 13:57:00,53.3,23.4,30.05,SSE,153,2.0,9.0,31,0.00,,,0.00,Wunderground v.1.15,2013-10-26 17:57:00,
2013-10-26 14:03:00,53.5,23.6,30.05,NE,49,3.0,4.0,31,0.00,,,0.00,Wunderground v.1.15,2013-10-26 18:03:00,
2013-10-26 14:08:00,53.9,23.1,30.05,NE,46,3.0,8.0,30,0.00,,,0.00,Wunderground v.1.15,2013-10-26 18:08:00,
2013-10-26 14:17:00,54.2,23.4,30.04,ESE,117,3.0,4.0,30,0.00,,,0.00,Wunderground v.1.15,2013-10-26 18:17:00,
2013-10-26 14:23:00,55.0,24.1,30.03,NNE,31,2.0,3.0,30,0.00,,,0.00,Wunderground v.1.15,2013-10-26 18:23:00,
2013-10-26 14:29:00,55.3,24.4,30.03,NNW,327,2.0,5.0,30,0.00,,,0.00,Wunderground v.1.15,2013-10-26 18:29:00,
2013-10-26 14:37:00,54.9,23.2,30.03,NE,45,2.0,5.0,29,0.00,,,0.00,Wunderground v.1.15,2013-10-26 18:37:00,
2013-10-26 14:43:00,54.8,23.1,30.03,South,189,2.0,4.0,29,0.00,,,0.00,Wunderground v.1.15,2013-10-26 18:43:00,
2013-10-26 14:49:00,54.9,22.4,30.03,SE,134,3.0,5.0,28,0.00,,,0.00,Wunderground v.1.15,2013-10-26 18:49:00,
2013-10-26 14:55:00,55.0,23.3,30.03,NW,320,3.0,4.0,29,0.00,,,0.00,Wunderground v.1.15,2013-10-26 18:55:00,
2013-10-26 15:00:00,54.8,23.1,30.03,ESE,122,3.0,3.0,29,0.00,,,0.00,Wunderground v.1.15,2013-10-26 19:00:00,
2013-10-26 15:06:00,55.3,23.5,30.03,SSE,148,3.0,4.0,29,0.00,,,0.00,Wunderground v.1.15,2013-10-26 19:06:00,
2013-10-26 15:11:00,54.9,23.2,30.02,East,87,4.0,4.0,29,0.00,,,0.00,Wunderground v.1.15,2013-10-26 19:11:00,
2013-10-26 15:17:00,55.3,23.5,30.02,SSE,157,4.0,6.0,29,0.00,,,0.00,Wunderground v.1.15,2013-10-26 19:17:00,
2013-10-26 15:23:00,55.0,23.3,30.01,SE,134,3.0,4.0,29,0.00,,,0.00,Wunderground v.1.15,2013-10-26 19:23:00,
2013-10-26 15:28:00,55.2,23.0,30.01,WNW,285,1.0,8.0,29,0.00,,,0.00,weatherlink.com 1.10,2013-10-26 19:28:00,
2013-10-26 15:34:00,55.4,23.6,30.00,SSW,194,2.0,6.0,29,0.00,,,0.00,Wunderground v.1.15,2013-10-26 19:34:00,
2013-10-26 15:41:00,56.0,24.0,30.00,ENE,74,2.0,3.0,29,0.00,,,0.00,weatherlink.com 1.10,2013-10-26 19:41:00,
2013-10-26 15:56:00,55.7,23.0,29.99,ENE,68,3.0,6.0,28,0.00,,,0.00,weatherlink.com 1.10,2013-10-26 19:56:00,
2013-10-26 16:11:00,55.7,23.0,29.98,South,173,1.0,8.0,28,0.00,,,0.00,weatherlink.com 1.10,2013-10-26 20:11:00,
2013-10-26 16:26:00,56.0,23.0,29.98,ENE,72,1.0,5.0,28,0.00,,,0.00,weatherlink.com 1.10,2013-10-26 20:26:00,
2013-10-26 16:41:00,56.3,23.0,29.97,SE,126,2.0,5.0,27,0.00,,,0.00,weatherlink.com 1.10,2013-10-26 20:41:00,
2013-10-26 16:56:00,55.8,22.0,29.96,SW,230,1.0,4.0,27,0.00,,,0.00,weatherlink.com 1.10,2013-10-26 20:56:00,
2013-10-26 17:11:00,55.2,26.0,29.95,SE,138,1.0,6.0,33,0.00,,,0.00,weatherlink.com 1.10,2013-10-26 21:11:00,
2013-10-26 17:26:00,54.3,27.0,29.96,WSW,238,2.0,6.0,35,0.00,,,0.00,weatherlink.com 1.10,2013-10-26 21:26:00,
2013-10-26 17:41:00,54.0,27.0,29.95,SW,229,0.0,4.0,36,0.00,,,0.00,weatherlink.com 1.10,2013-10-26 21:41:00,
2013-10-26 17:56:00,53.7,28.0,29.95,SW,215,0.0,3.0,37,0.00,,,0.00,weatherlink.com 1.10,2013-10-26 21:56:00,
2013-10-26 18:11:00,53.4,28.0,29.95,South,177,1.0,8.0,37,0.00,,,0.00,weatherlink.com 1.10,2013-10-26 22:11:00,
2013-10-26 18:26:00,52.0,31.0,29.94,SSW,209,0.0,3.0,45,0.00,,,0.00,weatherlink.com 1.10,2013-10-26 22:26:00,
2013-10-26 18:41:00,51.2,29.0,29.94,SW,233,0.0,2.0,42,0.00,,,0.00,weatherlink.com 1.10,2013-10-26 22:41:00,
2013-10-26 18:56:00,50.9,34.0,29.94,SW,217,0.0,1.0,52,0.00,,,0.00,weatherlink.com 1.10,2013-10-26 22:56:00,
2013-10-26 19:11:00,49.7,33.0,29.94,SW,217,0.0,1.0,52,0.00,,,0.00,weatherlink.com 1.10,2013-10-26 23:11:00,
2013-10-26 19:26:00,49.5,33.0,29.95,SW,217,1.0,1.0,54,0.00,,,0.00,weatherlink.com 1.10,2013-10-26 23:26:00,
2013-10-26 19:41:00,49.0,31.0,29.95,SW,217,0.0,0.0,51,0.00,,,0.00,weatherlink.com 1.10,2013-10-26 23:41:00,
2013-10-26 19:56:00,48.7,33.0,29.94,SW,217,0.0,1.0,55,0.00,,,0.00,weatherlink.com 1.10,2013-10-26 23:56:00,
2013-10-26 20:11:00,48.2,35.0,29.94,SW,217,0.0,1.0,60,0.00,,,0.00,weatherlink.com 1.10,2013-10-27 00:11:00,
2013-10-26 20:26:00,48.0,37.0,29.94,SW,217,0.0,1.0,65,0.00,,,0.00,weatherlink.com 1.10,2013-10-27 00:26:00,
2013-10-26 20:41:00,47.6,33.0,29.93,SW,217,0.0,1.0,58,0.00,,,0.00,weatherlink.com 1.10,2013-10-27 00:41:00,
2013-10-26 20:56:00,47.4,36.0,29.94,SW,217,1.0,1.0,65,0.00,,,0.00,weatherlink.com 1.10,2013-10-27 00:56:00,
2013-10-26 21:11:00,47.9,33.0,29.94,East,92,0.0,4.0,57,0.00,,,0.00,weatherlink.com 1.10,2013-10-27 01:11:00,
2013-10-26 21:26:00,48.5,32.0,29.95,ENE,67,3.0,4.0,53,0.00,,,0.00,weatherlink.com 1.10,2013-10-27 01:26:00,
2013-10-26 21:41:00,52.3,30.0,29.96,North,5,1.0,7.0,43,0.00,,,0.00,weatherlink.com 1.10,2013-10-27 01:41:00,
2013-10-26 21:56:00,53.2,30.0,29.96,South,173,2.0,7.0,42,0.00,,,0.00,weatherlink.com 1.10,2013-10-27 01:56:00,
2013-10-26 22:11:00,52.8,31.0,29.97,WSW,247,1.0,6.0,43,0.00,,,0.00,weatherlink.com 1.10,2013-10-27 02:11:00,
2013-10-26 22:26:00,52.5,30.0,29.97,ENE,57,3.0,9.0,43,0.00,,,0.00,weatherlink.com 1.10,2013-10-27 02:26:00,
2013-10-26 22:41:00,52.4,30.0,29.97,ENE,67,2.0,22.0,42,0.00,,,0.00,weatherlink.com 1.10,2013-10-27 02:41:00,
2013-10-26 22:56:00,52.1,29.0,29.98,NNE,26,1.0,7.0,42,0.00,,,0.00,weatherlink.com 1.10,2013-10-27 02:56:00,
2013-10-26 23:11:00,51.8,30.0,29.98,NE,51,4.0,13.0,43,0.00,,,0.00,weatherlink.com 1.10,2013-10-27 03:11:00,
2013-10-26 23:26:00,51.3,30.0,29.98,ESE,123,2.0,13.0,45,0.00,,,0.00,weatherlink.com 1.10,2013-10-27 03:26:00,
2013-10-26 23:41:00,50.9,30.0,29.98,SE,128,5.0,11.0,45,0.00,,,0.00,weatherlink.com 1.10,2013-10-27 03:41:00,
2013-10-26 23:56:00,50.5,30.0,29.98,West,259,0.0,11.0,46,0.00,,,0.00,weatherlink.com 1.10,2013-10-27 03:56:00,